Content
SEND FEEDBACK

Daily
Averages
Monthly
Summary
Philippines

BOOT, PHILIPPINES


Home > Asia > Philippines
Elevation: 36 feet     Latitude: 14 04N     Longitude: 121 03E

WEATHER
 
SELECT A DAY
Number of Records: 172,724;   Date Range: 7/1/96 - 9/16/14
 
SHARE

PRINT THIS DATA

[ ← Previous Day ]
WEATHER ALMANAC - MAY 12, 2013
[ Next Day → ]
[ °C ]   °F
Weather ElementAverageHighLow
Temperature86 °F91.4 °F (1:00 pm)82 °F (5:00 am)
Dewpoint77.6 °F80 °F (5:00 am)75.2 °F (3:00 pm)
Humidity74.9 %92 % (5:00 am)55 % (2:00 pm)
Barometer29.79 in29.87 in (11:00 am)29.74 in (2:00 pm)
Wind Speed5.7 mph13.8 mph (3:00 pm)
Weather ElementAverage
Visibility5.9 mi
Wind DirectionSSE (163.9 °)

Weather ElementTotal
Precipitation---
Cooling Degree Days21.7 (Base 65)
Growing Degree Days36.7 (Base 50)
Averaged from 31 records on May 12, 2013
WEATHER CONDITIONS BREAKOUT
WIND DIRECTION BREAKOUT
WEATHER BY HOUR - MAY 12, 2013
[ °C ]   °F
Local TimeTemperatureDewpointHumidityBarometerVisibilityWind DirectionWind SpeedGust SpeedPrecipitationEventsConditions
1:00 AM84.2 °F77.0 °F79 %29.80 in6.2 miWest (280°)4.6 mphMostly Cloudy
2:00 AM83.0 °F78.0 °F80 %29.78 in6.0 miWNW (290°)2.2 mphHaze
2:00 AM82.4 °F77.0 °F84 %29.77 in6.2 miVariable1.2 mphMostly Cloudy
3:00 AM82.4 °F78.8 °F89 %29.77 inNorthScattered Clouds
4:00 AM82.4 °F78.8 °F89 %29.77 in5.6 miVariable1.2 mphScattered Clouds
5:00 AM82.0 °F80.0 °F92 %29.76 in6.0 miSW (220°)2.2 mphHaze
5:00 AM82.4 °F78.8 °F89 %29.77 in5.6 miSW (220°)3.5 mphScattered Clouds
6:00 AM82.4 °F78.8 °F89 %29.77 in5.0 miVariable2.3 mphScattered Clouds
7:00 AM84.2 °F78.8 °F84 %29.80 in5.0 miEast (80°)4.6 mphScattered Clouds
8:00 AM86.0 °F78.0 °F73 %29.83 in6.0 miENE (60°)2.2 mphHaze
8:00 AM86.0 °F78.8 °F79 %29.83 in5.0 miNE (50°)3.5 mphScattered Clouds
9:00 AM86.0 °F77.0 °F74 %29.83 in6.2 miWest (260°)5.8 mphRainRain
10:00 AM87.8 °F78.8 °F75 %29.86 in5.0 miWest (280°)6.9 mphMostly Cloudy
11:00 AM89.0 °F79.0 °F66 %29.87 in6.0 miWest (260°)6.7 mphOvercast
11:00 AM89.6 °F77.0 °F66 %29.83 in5.6 miWest (260°)6.9 mphMostly Cloudy
12:00 PM89.6 °F78.8 °F70 %29.80 in6.2 miWest (270°)11.5 mphMostly Cloudy
1:00 PM91.4 °F77.0 °F63 %29.77 in6.2 miWest (270°)12.7 mphMostly Cloudy
2:00 PM90.0 °F76.0 °F55 %29.75 in6.0 miWest (270°)11.2 mphHaze
2:00 PM89.6 °F77.0 °F66 %29.74 in6.2 miWest (270°)11.5 mphMostly Cloudy
3:00 PM91.4 °F75.2 °F59 %29.74 in6.2 miWest (270°)13.8 mphMostly Cloudy
4:00 PM89.6 °F77.0 °F66 %29.74 in6.2 miWSW (250°)12.7 mphMostly Cloudy
5:00 PM88.0 °F76.0 °F60 %29.74 in6.0 miSSE (160°)6.7 mphHaze
5:00 PM87.8 °F75.2 °F66 %29.74 in6.2 miSSE (160°)5.8 mphMostly Cloudy
6:00 PM86.0 °F77.0 °F74 %29.77 in6.2 miSouth (170°)4.6 mphMostly Cloudy
7:00 PM86.0 °F78.8 °F79 %29.77 in6.2 miVariable2.3 mphOvercast
8:00 PM85.0 °F77.0 °F72 %29.81 in6.0 miSE (140°)4.5 mphHaze
8:00 PM86.0 °F77.0 °F74 %29.80 in6.2 miSE (140°)4.6 mphMostly Cloudy
9:00 PM84.2 °F77.0 °F79 %29.80 in6.2 miSouth (170°)3.5 mphMostly Cloudy
10:00 PM84.2 °F77.0 °F79 %29.83 in6.2 miVariable2.3 mphMostly Cloudy
11:00 PM84.0 °F77.0 °F74 %29.85 in6.0 miSE (140°)4.5 mphHaze
11:00 PM84.2 °F77.0 °F79 %29.83 in6.2 miSE (140°)3.5 mphMostly Cloudy
Hourly data recorded from RPLL, located miles away from Boot, Philippines







STORIES FROM OUR PARTNERS